S59ZO-6 Weather Reports


Display with metric or nautical units.
time (UTC)temp
F
wind
direction
speed
MPH
gust
MPH
rain 1hr
in
rain 24hr
in
rain mn
in
humidity
%
barometer
mb
20191117071004 51 45 0.0 1.0 0.00 0.51 0.00 88 1017.6
20191117065004 51 45 0.0 1.0 0.00 1.28 0.00 88 1017.7
20191117063004 51 45 0.0 1.0 0.00 1.36 0.00 88 1017.6
20191117060004 51 45 0.0 1.0 0.00 8.19 0.00 88 1017.7
20191117055003 51 45 0.0 1.0 0.00 5.87 0.00 88 1017.6
20191117054004 51 45 0.0 1.0 0.00 1.44 0.00 88 1017.2
20191117053004 51 50 0.0 2.0 0.00 7.28 0.00 89 1017.3
20191117052003 51 50 0.0 2.0 0.00 1.41 0.00 89 1017.3
20191117050004 51 50 0.0 2.0 0.00 1.43 0.00 89 1017.2
20191117044004 51 91 1.0 2.0 0.00 1.02 0.00 89 1017.2
20191117043004 51 104 1.0 2.0 0.00 1.40 0.00 89 1017.3
20191117042004 51 5 0.0 2.0 0.00 1.77 0.00 89 1017.3
20191117040004 51 204 1.0 3.0 0.00 2.01 0.00 89 1017.4
20191117035004 51 162 2.0 3.0 0.00 2.05 0.00 88 1017.5
20191117032004 51 223 2.0 2.0 0.00 1.23 0.00 88 1017.7
20191117031004 51 223 2.0 2.0 0.00 6.02 0.00 88 1017.7
20191117025004 51 223 2.0 2.0 0.00 4.09 0.00 88 1017.8
20191117022004 51 223 2.0 2.0 0.00 1.22 0.00 88 1018.0
20191117020005 51 137 2.0 4.0 0.00 1.32 0.00 88 1018.4
20191117015004 51 356 1.0 4.0 0.00 1.30 0.00 88 1018.6
20191117013005 51 116 1.0 4.0 0.00 1.07 0.00 88 1018.7
20191117012004 51 70 0.0 2.0 0.00 1.29 0.00 88 1018.9
20191117011004 51 30 0.0 2.0 0.00 1.30 0.00 88 1018.8
20191117010005 51 82 1.0 2.0 0.00 2.52 0.00 88 1019.1
20191117004004 51 3 1.0 3.0 0.00 1.25 0.00 88 1019.0
20191117003004 51 256 1.0 3.0 0.00 1.43 0.00 89 1018.9
20191117000005 50 41 0.0 3.0 0.00 7.64 0.00 89 1019.4
20191116235004 50 152 1.0 2.0 0.00 1.20 0.00 89 1019.3
20191116234004 50 338 0.0 2.0 0.00 8.46 0.00 89 1019.5
20191116225004 51 194 0.0 2.0 1.00 1.40 0.34 89 1020.0
20191116224004 50 78 0.0 2.0 1.13 7.64 0.34 89 1019.9
20191116223005 50 51 0.0 5.0 1.17 1.28 0.34 89 1020.1
20191116221003 51 108 0.0 2.0 0.04 1.26 0.34 89 1020.0
20191116220004 50 112 1.0 2.0 1.02 1.26 0.34 89 1020.1
20191116214004 51 67 0.0 2.0 1.42 8.10 0.33 88 1020.0
20191116213004 51 147 1.0 4.0 1.12 1.30 0.33 88 1020.4
20191116210004 52 354 0.0 3.0 1.25 1.06 0.31 90 1020.4
20191116204004 52 81 1.0 2.0 0.00 1.22 0.31 91 1020.9
20191116203004 51 28 0.0 2.0 0.00 8.11 0.31 91 1020.9
20191116202004 51 33 1.0 2.0 0.00 4.06 0.31 90 1021.2
20191116201004 51 46 0.0 2.0 0.01 1.09 0.31 90 1021.1
20191116200004 51 174 0.0 1.0 0.02 1.19 0.31 90 1021.1
20191116194004 51 45 0.0 1.0 0.05 0.32 0.31 90 1021.5
20191116193004 51 141 0.0 1.0 0.06 0.87 0.31 90 1021.5
20191116192004 51 334 0.0 1.0 0.08 8.82 0.31 90 1021.7
20191116191004 51 345 0.0 1.0 0.08 1.07 0.30 90 1021.7
20191116185005 51 148 1.0 2.0 0.07 5.28 0.27 90 1022.0
20191116184004 51 39 0.0 2.0 0.07 1.27 0.26 90 1021.9
20191116180004 51 45 0.0 1.0 0.02 1.39 0.20 88 1022.0
20191116174004 52 90 0.0 1.0 0.01 8.43 0.19 87 1022.1
20191116173004 52 16 0.0 2.0 0.01 1.37 0.19 87 1022.2
20191116172003 52 9 0.0 1.0 0.01 1.06 0.19 86 1022.1
20191116165003 52 97 0.0 2.0 0.00 1.13 0.18 86 1021.9
20191116162004 52 23 0.0 1.0 0.00 8.73 0.18 85 1021.8
20191116161003 52 44 0.0 2.0 0.00 5.58 0.18 85 1021.7
20191116160004 52 33 1.0 2.0 0.00 2.43 0.18 85 1021.9
20191116155003 52 45 0.0 2.0 0.00 1.05 0.18 85 1021.8
20191116154003 52 26 0.0 1.0 0.00 1.22 0.18 85 1021.7
20191116145005 53 181 0.0 1.0 0.00 1.42 0.18 83 1021.0
20191116143004 53 1 1.0 2.0 0.00 1.42 0.18 82 1020.8
20191116140003 54 0 0.0 0.0 0.00 8.93 0.18 81 1021.1
20191116135004 54 29 0.0 2.0 0.00 8.93 0.18 81 1021.2
20191116133003 55 116 1.0 2.0 0.00 1.25 0.18 77 1021.3
20191116132004 55 33 0.0 2.0 0.00 1.27 0.18 75 1021.1
20191116131004 55 74 0.0 1.0 0.00 8.93 0.18 74 1021.1
20191116125004 55 59 0.0 1.0 0.00 1.31 0.18 74 1021.0
20191116124004 56 135 0.0 1.0 0.00 1.19 0.18 74 1021.1
20191116123004 56 52 0.0 2.0 0.00 8.26 0.18 73 1021.0
20191116122004 56 35 1.0 2.0 0.00 7.24 0.18 74 1020.9
20191116121004 55 23 1.0 2.0 0.00 4.52 0.18 74 1020.7
20191116120005 55 44 0.0 2.0 0.00 1.20 0.18 75 1020.8
20191116111005 53 1 0.0 1.0 0.00 1.01 0.18 82 1021.1
20191116110004 54 225 0.0 1.0 0.00 1.41 0.18 84 1021.5
20191116105003 53 90 0.0 1.0 0.00 1.29 0.18 86 1021.0
20191116104004 53 40 0.0 2.0 0.00 1.22 0.18 86 1021.0
20191116102004 53 157 0.0 2.0 0.00 1.14 0.18 91 1020.8
20191116095004 52 14 0.0 2.0 0.00 1.27 0.18 92 1020.6
20191116094004 51 149 2.0 3.0 0.00 1.33 0.18 93 1020.6
20191116092004 51 23 0.0 2.0 0.00 1.33 0.18 93 1020.6
20191116091004 51 156 1.0 2.0 0.00 1.36 0.18 93 1020.3
20191116090004 51 106 1.0 3.0 0.00 1.12 0.18 93 1020.2
20191116085004 50 140 0.0 2.0 0.00 1.19 0.18 93 1020.1
20191116081003 50 39 0.0 2.0 0.00 1.21 0.18 93 1019.4
20191116074004 49 14 0.0 2.0 0.00 2.75 0.18 93 1019.7
20191116073005 49 26 0.0 2.0 0.00 1.13 0.18 93 1019.7